Location: *
(2.5500°S, 65.9667°W)
Time: 17:16:07
(UTC+00:00)

A-11 Canister half - Pass Details

Date: 13 April 2024
Orbit: 1525 x 1683 km, 47.3° (Epoch: 21 May)

Event Time Altitude Azimuth Distance (km) Brightness Sun altitude
Exits shadow 08:45:44 24° 214° (SW) 2,886 10.0 -24.7°
Maximum altitude 08:52:28 81° 129° (SE) 1,647 9.1 -23.1°
Drops below altitude 10° 09:02:29 10° 43° (NE) 3,906 11.8 -20.6°
Sets 09:05:39 0° 42° (NE) 4,905 12.5 -19.8°
